FW5905 Weather Reports


time (UTC)temp
C
wind
direction
speed
KPH
gust
KPH
rain 1hr
cm
rain 24hr
cm
rain mn
cm
humidity
%
barometer
mb
20260504151024 21 251 6.4 17.7 0.00 0.03 0.03 82 1012.0
20260504141024 20 247 6.4 17.7 0.00 0.03 0.03 87 1012.4
20260504081024 18 358 1.6 3.2 0.00 0.69 0.00 94 1013.4
20260504050024 15 0.0 0.0 0.00 0.71 0.00 99 1013.0
20260504045024 15 0.0 0.0 0.00 0.71 0.00 99 1013.1
20260504044024 15 0.0 0.0 0.00 0.71 0.00 99 1013.0
20260504043024 15 0.0 0.0 0.00 0.71 0.00 99 1013.2
20260504042044 15 0.0 0.0 0.00 0.71 0.00 99 1013.1
20260504041024 15 0.0 0.0 0.00 0.71 0.00 99 1013.0
20260504040024 15 0.0 0.0 0.00 0.71 0.00 99 1013.0
20260504035024 15 337 0.0 1.6 0.00 0.71 0.00 99 1013.2
20260504034023 16 333 0.0 1.6 0.00 0.71 0.00 99 1013.4
20260504033023 15 319 0.0 1.6 0.00 0.71 0.00 99 1013.6
20260504032024 15 328 0.0 1.6 0.00 0.71 0.00 99 1013.7
20260504031044 15 299 0.0 3.2 0.00 0.71 0.00 99 1013.6
20260504030024 15 282 0.0 1.6 0.00 0.71 0.00 99 1013.6
20260504025024 15 342 0.0 1.6 0.00 0.71 0.00 99 1013.7
20260504024024 15 0.0 0.0 0.00 0.71 0.00 99 1013.6
20260504023044 15 19 0.0 1.6 0.00 0.71 0.00 99 1013.6
20260504022043 16 319 0.0 1.6 0.00 0.71 0.00 99 1013.7
20260504021023 16 358 0.0 1.6 0.00 0.71 0.00 99 1013.7
20260504020024 16 0.0 0.0 0.00 0.71 0.00 99 1013.6
20260504015044 16 354 0.0 1.6 0.00 0.71 0.00 99 1013.8
20260504014024 16 24 0.0 1.6 0.00 0.71 0.00 99 1013.9
20260504013024 16 313 0.0 3.2 0.00 0.71 0.00 99 1014.0
20260504012023 16 342 0.0 1.6 0.00 0.71 0.00 99 1014.0
20260504011044 16 2 0.0 1.6 0.00 0.71 0.00 99 1013.9
20260504010024 16 294 0.0 4.8 0.00 0.71 0.00 99 1014.3
20260504005024 16 311 1.6 3.2 0.00 0.71 0.00 99 1014.1
20260504004024 16 314 1.6 3.2 0.00 0.71 0.00 99 1014.3
20260504003024 16 296 1.6 3.2 0.00 0.71 0.00 99 1014.5
20260504002024 15 266 1.6 9.7 0.00 0.71 0.00 99 1014.7
20260504001024 15 322 0.0 1.6 0.00 0.71 0.00 99 1014.5
20260504000024 15 332 0.0 1.6 0.00 0.71 0.00 99 1014.4
20260503235023 15 341 0.0 1.6 0.00 0.71 0.71 99 1014.5
20260503234044 16 303 1.6 3.2 0.00 0.71 0.71 99 1014.6
20260503233024 16 339 0.0 1.6 0.00 0.71 0.71 99 1014.4
20260503232023 15 344 0.0 1.6 0.00 0.71 0.71 99 1014.4
20260503231024 15 0.0 0.0 0.00 0.71 0.71 99 1014.4
20260503230024 16 324 0.0 1.6 0.00 0.71 0.71 99 1014.4
20260503225044 16 0.0 0.0 0.00 0.71 0.71 98 1014.4
20260503224024 15 0.0 0.0 0.00 0.71 0.71 98 1014.5
20260503223024 15 0.0 0.0 0.00 0.71 0.71 98 1014.5
20260503222043 16 0.0 0.0 0.00 0.71 0.71 98 1014.3
20260503221043 16 0.0 0.0 0.00 0.71 0.71 98 1014.0
20260503220024 16 0.0 0.0 0.00 0.71 0.71 97 1014.1
20260503215024 16 0.0 0.0 0.00 0.71 0.71 97 1014.1
20260503214024 16 9 0.0 1.6 0.00 0.71 0.71 97 1014.2
20260503213044 16 330 0.0 1.6 0.00 0.71 0.71 97 1014.3
20260503212024 16 0.0 0.0 0.00 0.71 0.71 96 1014.2
20260503211044 16 0.0 1.6 0.00 0.71 0.71 96 1014.1
20260503210024 16 10 0.0 1.6 0.00 0.71 0.71 95 1014.1
20260503205023 16 13 0.0 1.6 0.00 0.71 0.71 95 1014.1
20260503204023 16 15 0.0 1.6 0.00 0.71 0.71 95 1013.9
20260503203103 16 17 1.6 3.2 0.00 0.71 0.71 94 1013.8
20260503202023 17 11 0.0 1.6 0.00 0.71 0.71 93 1014.0
20260503201023 17 20 0.0 3.2 0.00 0.71 0.71 92 1014.0
20260503200023 17 23 1.6 4.8 0.00 0.71 0.71 92 1013.9
20260503195043 17 25 1.6 6.4 0.00 0.71 0.71 92 1013.5
20260503194023 17 20 0.0 3.2 0.00 0.71 0.71 91 1013.8
20260503193043 17 18 0.0 1.6 0.00 0.71 0.71 90 1013.9
20260503192104 17 12 1.6 3.2 0.00 0.71 0.71 90 1013.9
20260503191024 17 20 1.6 3.2 0.00 0.71 0.71 91 1013.7
20260503190023 17 9 0.0 1.6 0.00 0.71 0.71 90 1013.9
20260503185023 17 10 0.0 1.6 0.00 0.71 0.71 89 1014.0
20260503184023 17 14 0.0 1.6 0.00 0.71 0.71 88 1013.9
20260503183023 18 14 0.0 1.6 0.00 0.71 0.71 86 1014.0
20260503182023 18 345 0.0 1.6 0.00 0.71 0.71 86 1013.9
20260503181023 18 9 0.0 1.6 0.00 0.71 0.71 86 1013.8
20260503180023 18 23 0.0 1.6 0.00 0.71 0.71 85 1013.8
20260503175023 18 20 0.0 3.2 0.00 0.71 0.71 83 1013.8
20260503174023 18 29 1.6 4.8 0.00 0.71 0.71 82 1013.7
20260503173023 19 30 1.6 6.4 0.00 0.71 0.71 80 1013.7
20260503172022 19 44 3.2 4.8 0.00 0.71 0.71 80 1013.5
20260503171022 20 30 1.6 4.8 0.00 0.71 0.71 79 1013.7